Location: Regensburg
(49.0167°N, 12.1000°E)
Time: 17:09:58
(UTC+01:00)

N. Korean satellite - Visible Passes

Search period start: 30 November 2021 00:00
Search period end: 10 December 2021 00:00
Orbit: 447 x 495 km, 97.3° (Epoch: 30 November)

Date Brightness Start Highest point End Pass type
(mag) Time Alt. Az. Time Alt. Az. Time Alt. Az.
30 Nov 9.4 04:38:39 10° NE 04:40:58 17° E 04:43:16 10° SE visible
30 Nov 7.0 06:11:11 10° N 06:14:18 34° WNW 06:17:24 10° SW visible
30 Nov 7.5 16:48:31 10° S 16:52:01 54° W 16:55:29 10° NNW visible
01 Dec 6.2 05:42:30 10° N 05:45:55 78° WNW 05:49:16 10° SSW visible
01 Dec 10.3 17:56:44 10° W 17:57:08 10° W 17:57:32 10° W visible
02 Dec 7.5 05:14:06 10° NNE 05:17:23 44° E 05:20:38 10° S visible
02 Dec 8.1 06:48:18 10° NNW 06:50:15 15° WNW 06:52:12 10° W visible
02 Dec 9.5 17:25:39 10° SW 17:28:23 21° W 17:31:06 10° NW visible
03 Dec 9.0 04:46:06 10° NE 04:48:44 21° E 04:51:20 10° SE visible
03 Dec 7.3 06:19:01 10° N 06:21:58 28° WNW 06:24:54 10° SW visible
03 Dec 8.0 16:56:22 10° S 16:59:44 43° W 17:03:06 10° NNW visible
04 Dec 6.3 05:50:12 10° N 05:53:34 62° WNW 05:56:54 10° SSW visible
05 Dec 7.0 05:21:42 10° NNE 05:25:03 56° E 05:28:22 10° S visible
05 Dec 8.3 06:56:22 10° NW 06:57:49 12° WNW 06:59:15 10° W visible
05 Dec 9.6 17:33:43 10° SW 17:36:05 17° W 17:38:27 10° NW visible
06 Dec 8.7 04:53:32 10° NE 04:56:25 25° E 04:59:15 10° SSE visible
06 Dec 7.5 06:26:47 10° NNW 06:29:32 23° WNW 06:32:17 10° WSW visible
06 Dec 8.4 17:04:09 10° SSW 17:07:24 34° W 17:10:36 10° NNW visible
07 Dec 9.8 04:26:11 10° ENE 04:27:38 12° E 04:29:04 10° ESE visible
07 Dec 6.5 05:57:50 10° N 06:01:08 49° WNW 06:04:24 10° SSW visible
08 Dec 6.6 05:29:13 10° NNE 05:32:37 71° ESE 05:35:59 10° S visible
08 Dec 8.5 07:04:47 10° NW 07:05:17 10° WNW 07:05:47 10° WNW visible
08 Dec 9.8 17:41:50 10° WSW 17:43:43 14° W 17:45:35 10° WNW visible
09 Dec 8.3 05:00:56 10° NNE 05:03:58 30° E 05:07:01 10° SSE visible
09 Dec 7.7 06:34:29 10° NNW 06:37:00 20° WNW 06:39:31 10° WSW visible
09 Dec 8.8 17:11:54 10° SSW 17:14:57 28° W 17:17:59 10° NW visible
